GFSSGP_925_thetae_087.txt.gz
Theta_e
320 321 321 320 324 324 325 327 325 327 327 328 323 341 344 343 344 346 348 347 347 354 355 345 342 343 345 346 345 346 347 348 342 340 344 344 339 335 335 335 337 336 334 328 323 319 317 319 321
319 320 321 322 323 324 325 324 327 327 326 323 321 333 339 343 345 350 349 346 347 354 355 351 341 341 343 346 346 347 348 347 344 344 346 344 338 334 334 334 335 331 326 322 320 317 316 318 323
318 321 325 326 323 324 325 324 326 326 325 326 328 331 334 338 337 346 348 349 348 353 353 353 339 338 340 343 347 347 347 346 345 345 345 341 335 334 332 332 331 325 321 319 317 316 315 316 322
317 321 322 327 326 323 323 325 327 327 327 327 328 332 332 329 333 347 350 351 350 351 352 348 339 336 336 338 343 345 346 346 345 345 342 336 333 332 329 328 325 321 319 317 316 315 314 313 314
317 321 326 327 327 325 324 326 326 326 326 328 327 330 335 333 348 352 351 352 349 351 352 351 339 336 335 335 337 341 344 345 345 343 337 334 332 329 326 325 322 320 318 316 316 317 317 317 317
321 321 326 327 325 324 325 325 325 325 324 325 326 328 330 330 348 352 352 352 348 350 353 353 340 337 335 335 334 335 338 340 340 337 334 334 332 329 326 323 320 319 317 316 316 317 318 319 320
321 323 324 325 325 324 324 324 324 323 324 324 323 328 329 327 338 352 352 352 349 350 353 353 349 338 336 335 334 332 333 335 335 335 334 333 330 326 324 322 320 318 317 316 316 317 318 318 318
319 321 321 322 323 324 322 322 322 323 323 322 322 325 324 324 326 347 351 352 350 349 351 353 351 347 346 344 335 333 332 332 334 335 335 333 330 325 323 321 319 318 317 317 317 317 317 317 317
315 320 320 320 321 321 321 321 320 320 320 321 321 322 322 324 334 344 347 350 349 348 350 352 351 349 347 346 342 335 334 332 332 336 336 334 337 330 327 325 321 320 318 317 317 317 317 318 318
317 319 319 318 319 320 319 319 318 318 318 319 319 320 320 320 329 338 345 346 347 347 348 350 351 350 348 346 347 344 344 341 340 342 344 341 340 339 339 333 322 321 321 319 318 318 318 319 332
313 318 316 316 317 318 317 317 317 317 317 318 318 319 319 319 320 329 342 345 344 345 347 349 352 351 349 346 347 346 346 346 345 342 336 342 341 340 335 337 335 336 328 333 326 325 330 334 335
314 314 314 315 315 316 315 315 315 315 316 316 317 318 318 319 320 321 330 342 345 344 347 349 351 352 349 348 347 347 346 346 346 344 334 334 337 336 339 338 337 339 337 337 332 334 330 335 336
313 312 312 313 312 312 313 313 314 314 315 316 316 317 318 319 320 320 322 329 344 345 346 348 350 351 351 351 349 347 347 347 346 345 339 332 337 336 335 337 336 334 336 334 335 332 334 340 340
310 311 312 313 313 312 313 314 313 315 316 316 316 317 317 318 320 320 322 323 341 347 347 347 349 349 349 350 349 348 346 347 347 347 346 337 333 330 331 331 333 331 330 331 325 327 337 340 341
312 313 312 313 313 313 313 313 313 314 314 315 316 316 316 317 317 319 322 325 330 345 349 348 349 350 348 349 350 349 348 347 347 346 344 345 339 337 334 332 329 331 328 328 329 332 338 339 340
312 311 313 313 311 312 312 314 314 314 314 315 314 315 316 317 317 317 318 319 319 327 347 349 349 349 349 347 348 349 348 348 348 347 347 345 344 343 340 341 341 336 332 331 331 334 341 342 343
311 312 312 314 312 313 313 314 314 315 315 315 316 315 315 316 317 317 317 317 314 322 341 349 349 349 349 347 347 348 348 348 348 348 346 344 344 343 342 341 341 340 339 339 337 337 340 342 345
312 313 313 314 314 313 314 315 315 316 315 315 315 315 316 316 317 316 316 315 313 314 324 347 349 349 349 348 347 347 347 347 347 348 346 346 339 334 340 341 338 339 341 340 338 337 338 341 343
312 313 314 314 314 313 315 316 316 316 316 316 316 316 317 317 317 316 316 315 314 314 313 323 345 346 347 347 346 345 345 345 346 346 346 340 343 344 337 342 343 334 339 339 337 338 341 342 344
312 313 314 314 314 314 316 316 317 317 316 316 316 316 317 318 318 318 317 318 317 316 315 316 330 344 345 345 344 344 343 343 343 344 344 340 341 341 334 338 341 339 335 335 335 332 340 342 344
314 314 315 315 314 316 317 317 317 316 315 316 316 316 316 316 317 319 319 317 319 321 320 320 323 337 345 345 344 344 345 344 343 343 342 338 338 337 338 338 339 339 337 340 338 333 343 345 344
315 314 314 314 316 317 317 318 318 317 316 316 317 317 316 315 315 316 317 318 317 320 322 321 322 332 343 345 345 345 346 345 345 344 342 340 337 337 338 338 338 338 338 339 336 342 345 343 344
315 313 314 316 318 319 317 318 318 317 317 317 316 316 318 318 317 316 316 314 314 316 319 323 325 329 336 344 345 346 347 347 347 346 346 344 343 340 342 344 344 343 341 331 331 334 339 336 330
316 316 317 317 318 319 318 319 318 317 316 315 316 317 317 316 316 316 315 315 315 315 316 322 327 329 332 340 344 346 347 347 346 346 346 347 347 346 344 344 344 345 344 342 342 335 327 327 332
317 317 318 319 319 320 317 317 317 316 316 315 316 317 317 316 315 317 316 316 315 315 316 320 325 329 331 335 343 346 346 346 346 346 346 345 344 344 344 344 345 344 343 344 343 340 336 335 332
318 318 319 322 320 319 317 318 317 316 315 315 316 317 315 315 316 317 317 316 317 318 317 317 321 327 329 332 339 343 344 343 343 342 341 342 342 342 341 342 343 344 343 342 342 340 339 337 337
319 320 318 320 320 321 317 316 315 314 314 315 316 315 315 316 317 317 316 316 315 317 319 318 320 324 328 329 330 331 330 328 328 326 327 331 331 333 333 333 336 339 341 342 343 342 343 341 340
318 317 321 321 320 318 314 314 313 312 314 316 314 315 315 316 317 318 317 317 317 316 319 321 321 323 326 325 325 323 320 321 324 322 324 326 327 328 330 330 332 334 337 339 339 338 339 340 340
319 320 319 317 319 319 317 312 314 314 313 313 315 314 315 316 317 318 316 314 317 316 318 320 321 322 324 324 324 324 322 320 321 327 328 328 326 328 331 332 333 335 334 333 332 332 332 333 333
314 318 319 322 318 320 320 317 312 312 312 314 313 313 315 315 315 317 317 315 317 317 316 318 320 320 320 321 321 320 320 321 323 325 328 327 329 330 331 333 333 330 327 325 323 322 322 323 325

GFSSGP_925_thetae_093.txt.gz
Theta_e
323 325 325 327 332 337 339 340 338 335 332 332 334 339 344 343 350 361 352 346 345 353 353 349 346 346 347 346 342 338 336 338 336 336 337 337 337 337 338 343 346 344 342 338 329 322 318 320 324
322 324 326 329 335 340 340 338 337 336 333 333 334 336 339 347 346 351 352 345 346 353 353 352 345 346 346 347 345 345 340 340 336 336 337 337 336 336 336 340 342 342 337 329 321 317 319 321 325
322 324 328 331 333 339 340 338 336 334 333 334 335 338 341 345 345 351 349 346 348 352 352 353 345 345 345 346 347 347 345 343 337 336 338 337 336 335 336 339 338 335 330 323 318 317 319 324 330
323 326 328 331 333 334 336 336 333 333 333 333 334 337 344 347 350 351 347 347 349 350 350 356 345 345 344 344 345 348 347 346 339 337 339 339 337 334 335 335 334 330 325 320 317 317 319 325 331
322 326 331 333 333 333 332 332 332 333 333 333 334 335 341 343 349 348 348 348 349 349 350 355 345 343 343 343 344 345 347 347 342 338 340 341 338 335 334 333 331 326 322 319 317 316 316 319 325
324 327 331 334 335 334 331 330 331 332 332 331 331 333 335 332 346 349 349 350 350 349 349 356 345 343 343 344 344 346 347 347 345 339 342 343 339 335 334 332 329 325 322 319 317 316 315 315 315
323 326 330 332 334 334 332 330 330 331 332 331 330 331 333 332 335 347 350 351 349 349 349 355 350 346 343 343 345 346 347 347 347 341 345 346 340 336 334 331 328 325 322 319 318 318 318 319 319
323 325 327 329 331 332 331 330 329 329 330 329 328 331 333 330 329 339 346 349 349 348 348 353 350 348 348 349 345 348 348 348 347 345 346 346 340 337 334 332 329 324 321 318 318 318 319 319 320
321 323 326 326 328 329 329 329 329 328 327 328 328 328 329 327 326 329 340 345 347 347 347 350 350 348 346 345 348 344 347 348 347 346 346 346 345 345 344 337 338 324 322 320 318 319 319 319 319
320 320 321 322 323 323 323 326 327 327 327 325 326 325 325 325 326 327 330 339 345 346 346 348 350 349 348 345 347 346 347 349 350 350 350 348 343 342 340 338 334 336 322 321 319 320 320 319 328
320 320 320 321 322 322 322 322 322 322 323 324 324 325 324 324 325 327 327 328 334 343 346 346 350 351 350 347 346 348 344 344 344 344 345 346 342 341 340 339 340 338 331 333 327 328 329 330 331
320 321 320 321 322 321 321 321 321 321 321 322 322 322 322 323 324 325 327 328 329 336 345 346 348 352 352 348 346 348 345 343 341 342 343 344 344 342 341 338 341 336 333 332 333 332 332 334 336
320 320 320 321 320 319 319 319 320 320 320 320 320 321 321 321 322 323 325 327 327 331 342 347 348 352 354 353 349 348 347 343 341 340 343 343 343 343 341 340 338 337 334 336 334 335 336 337 342
319 319 319 319 319 319 318 318 318 319 320 320 320 321 321 321 322 322 324 326 327 328 331 345 348 351 355 356 354 351 350 345 342 341 341 344 345 343 342 341 338 337 337 336 337 336 336 337 342
318 318 318 318 318 318 319 318 319 319 319 319 320 320 321 321 321 322 322 324 326 327 330 332 348 351 354 357 355 354 350 349 345 344 342 345 347 345 342 341 340 339 338 337 337 337 338 339 342
318 318 319 320 319 318 318 319 319 320 319 319 319 320 320 320 321 321 321 322 323 325 328 335 342 347 353 356 357 353 353 350 348 345 344 346 346 345 344 341 341 340 339 339 339 339 336 337 339
319 318 319 319 319 318 318 318 319 319 319 320 320 321 321 320 321 321 321 321 322 323 325 326 329 338 347 355 356 356 354 353 350 348 346 348 348 346 345 341 340 340 340 339 338 336 336 336 338
319 319 319 318 319 318 318 318 319 320 320 321 321 321 320 320 320 320 320 321 321 322 323 327 329 331 342 350 356 355 355 355 352 350 349 348 350 350 345 344 340 341 342 341 338 337 337 336 336
318 318 319 319 318 318 320 320 320 320 321 321 321 321 322 322 322 321 320 320 321 322 323 325 328 332 334 345 349 352 354 353 354 353 351 349 351 350 350 345 344 344 342 342 341 341 340 340 338
318 318 319 319 319 320 320 321 321 321 321 321 321 321 321 321 321 321 321 321 321 321 323 324 326 328 332 334 345 347 351 351 353 353 352 352 352 351 351 349 346 347 347 345 340 345 346 344 341
319 319 320 320 320 320 320 321 321 321 321 321 321 321 321 321 322 322 322 321 321 321 322 322 324 327 328 332 333 342 351 352 348 350 354 352 352 352 352 350 350 348 346 345 350 348 347 345 343
320 319 318 318 319 320 321 323 323 323 323 323 323 323 322 323 321 321 321 321 320 321 321 321 322 323 324 329 330 331 337 347 346 346 349 352 352 352 351 350 350 340 343 342 346 349 348 345 343
318 318 319 319 321 322 322 323 323 323 324 324 323 324 322 322 321 321 321 319 320 320 321 321 323 326 325 325 330 332 334 336 342 344 346 350 352 352 351 351 351 343 344 346 344 347 348 347 342
318 319 320 321 321 324 324 325 325 325 324 324 324 322 321 319 319 320 319 319 319 320 321 321 323 326 326 326 328 336 339 341 343 343 345 350 350 351 351 350 351 351 347 344 347 348 350 346 345
319 320 323 325 326 326 326 326 326 325 324 323 323 322 319 319 320 319 319 319 318 319 320 321 322 323 326 327 328 331 336 342 346 348 347 347 350 351 351 350 350 351 350 347 349 350 350 349 347
321 322 325 331 328 327 325 327 326 324 323 322 322 320 319 319 319 318 318 318 317 318 319 320 321 322 324 326 328 329 333 336 343 347 349 348 348 350 350 352 350 350 350 349 349 350 350 349 348
321 323 322 325 326 328 326 326 325 324 324 321 318 317 319 319 317 318 317 317 318 318 319 320 321 322 324 325 329 330 331 337 338 343 344 346 348 347 350 351 350 349 348 346 348 349 350 348 347
320 321 324 326 333 330 326 327 326 323 322 320 318 317 317 316 317 317 317 317 317 317 319 319 321 321 324 326 328 328 330 334 338 344 344 342 345 345 340 346 348 343 334 329 334 346 347 347 347
321 323 322 322 324 332 329 326 323 321 321 320 319 317 316 317 317 316 318 318 317 318 319 320 320 322 322 324 328 330 332 333 338 340 343 343 344 343 342 344 344 341 324 325 336 342 344 344 346
321 321 321 332 331 328 333 331 323 323 319 317 316 316 317 317 316 317 318 318 317 317 318 318 320 321 322 321 324 325 328 332 335 337 340 341 340 342 339 337 334 341 341 341 341 342 339 341 341

GFSSGP_925_thetae_096.txt.gz
Theta_e
321 325 326 327 331 336 339 338 337 338 334 333 335 336 341 347 356 365 351 349 354 355 353 348 348 347 343 338 335 335 336 337 337 337 337 337 336 339 341 341 343 343 341 338 331 326 319 322 325
320 323 326 327 332 339 340 337 337 337 334 333 333 334 337 348 352 352 347 349 354 355 352 350 348 347 345 343 337 335 336 337 336 337 337 337 337 338 340 344 344 343 339 330 322 318 319 322 326
320 324 326 329 332 337 340 340 338 335 333 334 334 336 348 350 351 351 347 350 354 352 354 351 347 347 346 345 341 339 337 338 337 337 337 337 337 336 337 340 342 340 333 324 318 319 320 324 327
323 325 325 327 333 334 336 338 336 334 334 334 335 345 347 349 351 348 346 349 352 351 351 351 346 347 346 346 345 345 341 341 337 337 338 338 337 336 336 338 338 335 327 321 318 319 321 327 334
323 324 328 330 332 333 334 335 334 334 334 334 334 344 346 347 348 347 348 348 349 351 354 353 345 345 346 346 346 346 346 344 339 337 338 339 337 336 335 337 336 333 325 321 318 317 320 325 329
323 325 328 332 334 334 334 333 332 333 334 333 333 337 336 343 347 347 347 348 348 351 356 351 345 345 345 345 345 345 346 346 344 338 338 340 339 337 336 335 334 329 323 320 318 316 316 316 318
322 325 328 330 332 333 334 332 331 331 332 333 331 334 334 334 342 347 348 348 349 351 358 354 346 344 344 344 344 345 346 347 346 341 338 342 341 337 336 335 333 328 324 321 318 317 316 316 317
321 323 326 328 331 332 333 333 331 330 330 330 330 331 332 330 332 342 346 347 348 349 357 356 351 350 344 344 345 346 347 348 347 345 339 343 344 339 337 335 332 328 326 322 319 318 319 319 319
320 323 326 326 327 328 329 332 331 330 330 329 329 330 329 328 327 330 340 345 345 348 350 354 351 350 350 351 346 346 348 349 348 347 342 344 346 341 339 334 335 328 324 322 319 318 319 319 319
320 322 323 325 326 326 326 326 328 329 330 329 328 328 327 326 326 328 331 340 345 346 347 352 350 349 348 347 349 344 349 350 349 349 347 346 348 346 345 342 333 338 327 321 319 318 318 318 318
319 320 320 321 321 322 322 323 324 324 326 327 326 326 327 326 326 326 328 328 330 343 345 349 351 349 349 347 347 346 348 350 352 352 352 349 349 345 345 342 339 333 331 321 320 318 318 319 326
319 320 319 319 321 322 322 322 322 322 323 323 323 324 323 324 325 325 326 328 328 329 339 347 351 350 350 349 350 349 347 348 349 349 351 352 347 344 344 341 340 338 334 325 331 330 327 329 331
318 319 320 321 320 321 321 320 321 321 322 322 322 321 321 322 323 323 324 325 327 329 330 346 351 352 352 351 349 350 348 346 346 346 346 347 347 346 344 340 342 342 337 334 328 334 333 332 335
319 319 320 320 320 320 320 319 319 319 320 320 321 321 321 322 322 323 324 325 326 328 330 333 351 352 353 352 351 353 350 346 346 344 344 345 346 343 344 342 338 342 337 336 335 334 335 338 338
319 319 319 319 319 319 319 318 318 320 320 320 320 321 321 322 322 324 322 323 326 327 327 330 329 354 354 355 352 352 355 350 347 344 344 344 341 346 345 342 343 338 337 335 337 336 337 337 339
318 318 318 319 319 318 318 318 319 321 320 320 319 320 321 322 322 322 322 323 323 324 326 328 334 343 354 355 358 355 356 354 349 346 344 343 342 345 347 344 342 340 341 338 339 338 338 338 337
319 318 319 319 320 320 319 318 319 320 320 320 321 321 322 322 324 321 322 322 322 323 325 326 327 328 333 358 357 358 356 354 353 350 346 344 344 341 348 345 343 341 341 341 338 339 338 339 338
320 320 319 319 321 320 319 319 319 320 320 321 322 321 322 322 323 323 321 320 321 322 324 327 328 328 328 333 352 354 357 355 355 354 349 348 348 345 344 347 343 342 341 340 339 338 339 337 336
319 319 319 320 320 320 319 320 320 320 320 321 321 323 324 324 323 321 320 321 323 323 323 324 325 328 329 331 344 355 356 357 356 355 354 351 349 349 346 345 344 343 341 340 339 339 338 338 337
319 318 319 320 320 320 320 320 320 321 322 322 322 323 324 325 325 326 324 323 323 323 324 324 325 326 326 332 332 339 350 353 355 355 356 353 352 350 351 347 346 341 344 342 341 340 339 340 337
319 320 320 319 320 321 321 321 322 322 322 322 323 324 323 324 324 326 326 323 322 322 323 323 323 321 326 329 330 330 332 344 352 352 353 354 353 353 352 352 347 346 344 344 342 342 342 341 343
320 320 319 319 320 320 320 322 324 323 324 324 325 324 323 324 324 323 323 322 322 321 321 321 323 326 327 328 327 331 332 336 343 350 352 353 354 353 353 353 353 347 348 347 347 346 347 345 345
318 319 319 319 320 321 321 322 322 324 324 325 326 326 326 325 324 322 321 321 321 320 321 323 324 322 322 328 327 332 327 328 333 334 336 348 355 354 353 353 353 352 348 350 349 349 349 349 344
318 318 319 320 320 323 322 323 323 324 326 326 325 326 324 322 321 320 320 320 320 320 320 320 322 324 326 323 324 330 332 333 336 334 338 337 349 354 351 352 354 353 351 350 347 346 350 348 345
319 320 321 323 323 324 323 324 327 330 327 325 325 325 323 321 320 320 320 320 320 319 319 320 320 321 324 323 326 327 329 333 334 338 339 337 345 347 351 352 353 354 352 352 347 346 349 350 348
319 320 324 327 329 327 326 327 327 327 326 325 323 323 322 320 320 320 319 320 318 318 319 320 321 322 323 324 326 328 327 331 332 333 337 341 341 341 349 351 351 353 353 353 349 347 348 350 349
321 322 322 326 327 330 328 325 326 326 326 325 324 322 319 319 321 319 318 319 318 318 319 320 319 321 323 322 327 329 330 333 332 333 335 337 344 344 342 348 349 349 350 352 351 346 343 333 343
321 321 323 325 336 332 327 326 327 327 326 323 322 321 319 320 318 318 319 319 318 319 318 318 322 322 321 324 323 325 326 330 331 334 333 337 338 343 346 345 342 341 338 337 333 338 329 328 329
325 322 322 324 327 333 332 327 326 325 323 323 323 322 320 319 317 318 318 317 318 318 317 317 320 319 322 321 322 323 326 326 328 329 334 337 338 342 344 344 339 335 331 326 324 326 324 325 325
323 325 324 332 332 330 333 332 326 327 323 324 320 319 318 319 319 318 318 318 318 318 318 317 319 320 320 321 322 324 324 327 327 325 327 331 327 336 343 340 334 327 329 327 326 326 325 325 324

GFSSGP_925_thetae_102.txt.gz
Theta_e
319 319 319 321 323 322 328 330 331 333 333 329 346 351 353 350 354 358 352 350 345 346 347 347 343 337 332 333 333 335 335 335 335 335 333 334 335 336 337 336 334 334 336 336 331 318 322 324 329
319 318 321 319 323 325 325 328 330 331 330 339 349 351 351 352 353 356 356 353 346 346 347 346 342 336 332 333 334 335 336 335 335 336 335 336 336 336 336 337 338 337 333 327 320 319 322 326 329
318 319 318 320 319 323 326 326 329 330 331 331 347 347 351 353 354 353 356 352 347 348 347 345 341 336 333 334 334 335 336 335 336 336 335 336 336 335 338 338 337 335 327 320 318 320 323 326 329
318 316 317 320 321 321 325 325 325 328 331 339 348 352 347 348 348 354 353 348 347 347 346 344 339 337 334 335 335 335 335 335 336 336 335 335 337 339 339 339 338 331 323 318 318 320 324 327 330
317 313 319 319 320 322 324 323 325 331 332 343 347 351 349 349 353 353 349 345 345 347 346 345 341 339 336 334 336 337 336 335 336 336 335 334 335 337 339 339 336 330 323 318 318 320 325 329 330
315 314 318 320 322 330 324 325 328 332 343 345 349 347 347 352 353 353 348 343 341 343 345 346 345 343 340 339 337 337 338 336 336 337 336 334 334 334 334 334 332 328 323 320 317 318 322 326 327
316 315 318 320 323 326 326 322 330 327 329 331 335 343 339 343 352 352 351 345 340 340 343 346 346 346 344 342 342 340 339 340 336 336 338 337 334 333 333 332 331 328 323 320 317 316 317 317 318
315 315 319 320 323 323 323 321 324 326 328 330 330 330 331 329 346 351 351 350 346 342 341 343 345 346 346 345 344 344 343 342 341 337 337 339 337 334 331 331 329 327 323 320 318 317 316 316 317
315 318 317 319 321 322 321 321 322 322 326 326 327 327 327 326 338 349 353 354 354 352 343 341 342 344 345 345 346 345 345 345 344 342 337 338 340 338 334 330 326 325 322 320 319 318 317 318 318
312 317 326 322 319 319 320 320 319 320 320 325 326 326 325 327 326 330 353 355 355 354 350 343 343 343 343 344 344 344 345 346 346 345 342 339 340 342 339 334 331 326 322 320 319 318 317 318 318
310 314 318 318 319 320 321 319 318 321 321 320 319 322 321 322 321 321 340 355 356 355 352 347 344 343 343 343 342 343 345 346 347 346 346 342 339 342 342 338 334 330 326 323 320 318 318 317 318
311 313 315 316 317 317 321 325 320 322 321 319 319 319 319 319 319 321 320 328 345 356 355 351 347 343 343 342 340 340 342 344 350 348 348 345 342 343 344 343 338 333 328 324 321 319 318 318 317
310 312 314 316 316 316 316 316 318 318 318 318 318 318 318 317 319 320 320 320 327 336 353 353 349 344 344 345 341 341 340 339 340 342 344 346 346 344 345 346 343 339 333 329 327 322 319 318 318
310 312 313 315 316 316 315 314 316 318 318 318 317 315 317 317 318 319 319 319 329 338 337 347 350 347 346 346 345 343 343 339 338 338 341 344 346 346 345 346 346 344 341 334 331 329 325 320 321
311 312 311 314 314 314 315 315 317 318 318 317 316 314 316 316 318 319 320 324 326 330 348 350 349 349 347 346 346 347 347 345 343 343 342 341 343 345 346 346 346 346 345 341 338 335 331 326 324
313 311 311 312 314 315 315 317 316 316 316 316 315 314 316 316 317 318 321 323 324 326 329 339 351 351 349 348 350 348 348 347 346 346 347 344 342 342 343 346 346 345 344 343 341 339 338 332 326
312 313 314 315 314 316 315 315 315 315 315 314 314 313 316 315 317 319 319 323 322 324 327 326 327 339 348 352 351 352 353 352 350 347 347 346 345 345 345 345 345 344 345 343 342 340 340 335 330
313 315 315 315 315 315 314 313 315 315 314 316 315 314 315 315 315 317 319 320 321 325 326 328 326 324 323 323 323 325 343 351 351 349 351 351 348 346 345 346 344 343 343 344 342 341 340 336 334
315 315 316 316 315 315 315 315 315 314 315 315 314 315 315 315 316 319 319 325 325 324 323 322 324 325 324 326 325 325 325 325 337 347 347 349 351 350 346 344 345 344 343 342 343 342 339 338 337
316 316 316 315 315 315 316 316 313 314 314 313 314 314 315 315 315 320 323 325 322 321 321 321 321 321 321 321 322 328 326 325 326 324 323 325 339 350 351 348 344 344 344 343 343 342 341 340 340
316 316 315 316 317 316 316 315 316 316 316 314 314 314 315 315 315 320 318 320 322 322 321 321 320 320 321 321 322 322 323 323 324 325 326 328 329 337 344 346 348 346 344 344 343 342 341 340 338
315 315 317 317 317 315 315 315 314 315 317 317 316 314 313 315 316 319 316 317 320 321 320 319 321 322 321 321 321 322 324 326 324 323 323 324 326 328 328 330 341 346 346 344 344 343 342 339 339
316 316 316 317 317 316 315 314 313 316 317 316 315 317 315 313 317 316 315 318 320 319 320 322 323 322 322 321 323 323 322 322 321 322 324 324 323 324 326 328 328 335 346 346 344 343 342 340 339
317 316 313 313 312 314 314 316 314 316 316 316 320 317 316 314 315 314 316 318 317 320 318 318 318 319 319 323 321 320 322 321 324 325 325 327 328 329 330 331 330 330 330 343 345 344 342 341 339
314 312 313 314 314 315 315 317 314 316 320 321 318 315 314 313 313 313 312 313 315 316 317 318 319 318 319 318 318 319 319 321 324 325 328 328 329 327 326 326 330 331 332 332 335 341 343 341 340
319 314 314 317 317 316 321 323 322 322 321 318 318 315 315 313 312 312 312 312 314 316 316 316 319 318 318 317 317 318 321 322 327 325 322 325 324 324 322 326 330 331 333 334 336 337 338 340 341
321 321 315 319 321 322 320 320 319 322 322 320 318 314 315 315 314 313 311 312 314 315 315 317 317 317 317 316 317 322 323 323 322 321 321 323 322 321 322 322 321 325 329 332 336 337 336 338 339
321 321 324 318 324 325 324 323 323 324 322 320 319 317 316 314 313 313 312 312 314 315 315 316 316 317 316 318 320 321 323 322 320 321 322 322 320 320 319 319 318 320 321 324 326 331 335 335 337
324 321 322 321 321 322 323 321 321 323 321 321 318 318 317 314 312 311 309 310 311 312 313 315 316 316 319 320 319 320 319 320 322 323 322 321 320 319 318 318 317 318 320 321 323 330 331 332 333
318 322 324 329 327 320 317 320 320 320 320 317 317 316 314 312 311 310 310 312 312 313 314 314 314 314 314 314 316 319 320 320 320 322 322 321 319 318 319 318 318 317 318 318 320 324 329 332 332

GFSSGP_925_thetae_105.txt.gz
Theta_e
319 319 318 321 323 322 327 329 330 330 330 344 344 348 349 350 351 348 351 352 345 348 347 345 338 332 330 331 333 335 336 335 334 334 335 337 339 339 339 339 337 335 335 335 325 320 323 326 330
319 318 320 316 322 324 325 324 328 329 332 348 347 350 351 353 356 354 354 353 345 347 347 343 337 332 332 332 334 335 335 334 334 332 334 336 337 337 338 336 333 334 335 331 319 320 324 328 330
318 318 317 319 318 323 326 325 326 325 328 330 348 347 350 354 355 353 354 352 347 348 347 342 337 333 333 333 334 334 334 334 333 332 333 335 335 335 334 334 335 333 329 323 318 321 324 328 330
318 315 315 320 321 320 326 323 322 323 325 340 347 352 346 347 351 354 355 350 347 347 346 342 337 333 333 334 334 334 334 334 333 333 334 334 334 336 337 337 335 330 323 318 319 321 324 327 330
316 314 319 319 319 320 325 322 322 323 327 344 347 351 348 353 354 355 353 348 345 347 346 341 338 333 334 334 335 335 335 335 334 333 334 337 337 339 339 338 335 327 321 318 319 321 324 327 329
313 315 318 320 320 324 326 322 322 325 345 347 348 348 347 354 354 352 348 346 345 346 345 340 339 334 334 335 335 335 335 335 335 334 332 333 337 339 339 337 333 328 321 318 318 320 324 327 328
312 316 318 319 321 322 326 320 326 323 333 336 341 347 344 352 353 350 347 346 345 345 345 341 340 338 335 335 336 337 336 335 336 336 334 331 330 330 331 332 331 328 322 319 317 318 320 323 324
313 314 318 319 322 322 324 320 320 320 325 329 333 338 341 347 353 351 350 349 347 346 345 344 342 341 339 338 336 337 338 337 336 337 337 335 332 330 329 327 327 326 323 320 318 317 317 317 317
313 314 316 318 321 320 323 319 319 318 321 325 326 330 330 342 351 350 350 353 350 348 347 346 345 344 343 341 340 340 339 339 339 336 337 338 337 334 331 330 328 326 323 320 319 318 317 317 317
311 316 321 319 320 319 320 320 319 318 320 319 324 324 326 346 348 349 351 352 353 351 348 347 346 346 345 344 343 343 343 342 341 340 337 338 339 338 335 332 330 328 326 323 320 319 318 317 318
310 320 322 321 320 320 322 322 322 320 320 319 319 320 320 320 337 350 351 352 351 349 347 344 345 346 346 346 346 345 345 345 345 344 342 339 339 341 340 338 335 332 330 328 324 321 319 318 318
312 312 317 323 326 324 318 323 328 330 323 319 317 319 319 318 318 328 349 352 353 353 349 345 347 348 347 347 347 346 346 346 345 345 345 344 341 340 342 342 340 338 334 331 330 326 323 321 319
310 312 314 315 318 318 321 324 329 325 325 317 316 317 317 316 316 321 344 348 353 353 352 350 347 345 346 347 347 347 347 347 346 345 345 345 345 343 341 340 343 343 340 336 333 330 327 324 322
310 311 313 314 314 315 321 317 315 324 324 319 317 316 315 315 316 317 318 320 324 346 353 353 351 348 345 346 347 347 346 346 345 344 342 341 344 345 344 342 342 343 344 343 340 335 331 329 324
311 311 312 312 313 314 315 316 316 318 317 317 318 314 314 314 315 316 319 326 330 331 333 346 353 351 348 346 347 346 344 344 344 344 345 346 345 345 345 345 344 344 344 345 344 342 339 335 332
309 309 310 311 312 313 315 316 316 316 316 317 315 314 313 313 314 316 318 324 330 337 337 338 347 349 348 346 345 345 346 347 346 345 345 344 345 346 347 347 346 345 345 345 345 344 343 341 338
309 311 310 312 312 314 314 315 315 315 314 315 314 313 313 312 314 316 319 323 328 340 345 349 349 348 347 346 348 348 347 345 346 347 346 345 346 347 347 347 346 346 345 345 344 344 342 340 338
311 313 313 313 314 313 313 313 313 313 313 313 312 312 312 312 313 316 319 321 323 328 336 345 350 351 350 349 348 342 346 349 352 351 350 349 349 348 346 346 347 346 346 345 344 343 341 341 339
313 314 315 315 315 316 314 314 314 315 312 312 312 313 313 312 313 314 316 319 324 326 326 326 326 325 325 322 322 323 322 327 335 343 344 345 343 338 342 348 346 345 345 345 343 342 340 339 339
315 315 315 315 315 314 314 315 314 313 312 313 313 313 313 314 314 318 323 324 325 327 326 324 323 322 322 322 323 325 325 325 324 324 323 326 328 329 333 339 345 347 346 344 344 343 341 340 340
315 316 315 315 316 315 315 314 314 315 314 314 313 313 313 313 313 318 322 323 324 324 324 323 322 321 320 320 321 322 322 322 321 321 321 321 321 322 324 325 329 332 340 344 344 344 342 341 341
315 314 316 316 315 314 314 314 313 313 314 316 316 313 312 312 312 317 318 318 320 320 321 321 320 321 322 321 321 321 321 321 321 321 321 320 321 323 326 327 328 329 330 335 340 344 343 341 340
315 315 315 315 315 313 313 313 313 314 317 315 314 313 315 312 312 316 317 318 319 320 320 320 321 322 321 321 321 321 322 322 321 320 320 322 324 326 325 324 322 320 325 330 334 339 343 343 341
315 314 311 310 310 313 313 313 313 315 316 314 316 316 314 313 313 314 314 317 318 318 319 322 322 321 320 320 322 322 321 320 320 320 323 323 326 324 322 320 320 322 327 329 330 333 337 340 340
312 310 313 314 313 314 313 314 313 316 320 319 318 314 313 312 311 311 311 311 315 318 320 322 320 320 319 318 320 319 319 319 318 319 321 325 326 323 321 320 319 320 321 325 330 332 334 335 337
318 312 312 316 315 314 318 319 320 321 318 315 314 313 312 313 312 312 312 313 315 316 316 317 317 317 318 319 318 318 317 317 318 320 322 325 322 322 321 320 319 319 319 319 320 323 328 334 334
321 320 315 317 318 319 318 318 318 320 318 318 316 314 313 312 310 311 310 310 310 312 313 313 316 317 317 317 317 317 316 317 319 320 324 321 321 321 320 319 318 317 318 318 318 319 321 323 327
321 320 322 316 323 324 320 322 318 323 320 320 318 317 316 313 310 308 307 309 310 311 311 312 312 313 314 315 315 316 319 321 321 323 321 320 320 321 320 319 316 316 315 316 317 318 318 320 323
320 319 319 318 317 320 321 320 318 323 320 318 314 313 312 310 309 309 309 311 311 312 312 312 312 312 312 312 312 313 315 317 318 319 320 320 321 321 320 318 316 316 315 314 316 317 318 320 323
318 321 320 320 324 316 313 317 318 317 314 313 312 311 310 309 309 308 308 309 310 310 310 310 310 310 309 309 309 309 309 310 310 311 314 319 322 321 320 318 317 317 315 315 315 315 317 318 320